Погода в Рославле

Погода в Рославле : погода сейчас, прогноз погоды и архив. Всё, что Вы хотите узнать о погоде в Рославле!

Хотите узнать прогноз погоды в Рославле? Тогда Вам сюда: Погода в Рославле

Поиск расширенной информации на нашем сайте:

Полезная информация:

Другие новости

Новости СМИ2

Главная страница сайта

Новости сайта

03.07.2017

Напоминаем, что на нашем специализированном сайте Метеоцентр.Азия вы можете получить высокодетализированные автоматические прогнозы погоды по пунктам России, СНГ и мира в авиационном формате (включающие направление и скорость ветра, видимость, явления погоды, количество и форму облачности, нижнюю и верхнюю границу облачности).

Рекомендуем:

Погода в Рославле - сегодня

Время (UTC), дата Ветер
(°,м/с) 
Видим.   Явления Облачность Т
(°С)
Тd
(°С)
f(%) Тe
(°С)
Pmin
(гПа)
dP
(гПа)
Po
(мм)
O2
(г/м3)
Тmin Tmax R s Состояние
почвы
00 22.05.19 120 (ЮВ) 50000 м    8/6 600 м верхняя 
[Sc|Ci fib]
+13.4 +7.5 67 +14  1012.9  -1.3  740  283           
03 22.05.19 120 (ЮВ) 20000 м    10/0 средняя 
[Cu hum|Ac trans]
+13.5 +9.1 75 +14  1011.9  -0.9  739  282  +13.4         
06 22.05.19 150 (ЮВ) 20000 м    9/0 средняя, верхняя 
[Ac As|Ci sp]
+16.6 +11 69 +20  1011.2  -0.4  739  279  +13.4        влажная 
09 22.05.19 110 (В) 20000 м    9/3 1000 м верхняя 
[Cu hum|Ci ing]
+21.1 +11.8 55 +25  1010.1  -0.8  738  274           
12 22.05.19 090 (В) 20000 м    8/5 600 м верхняя 
[Cu med, cong|Ci sp]
+24.5 +12.6 47 +30  1008.7  -1  737  270           
15 22.05.19 140 (ЮВ) 20000 м    9/6 1000 м средняя, верхняя 
[Cu med, cong|Ac trans|Cs]
+22.8 +11.4 49 +26  1007.3  -1.5  736  272           
18 22.05.19 260 (З) 19000 м  гроза без осадков{ливн. осадки}  9/8 600 м кучево-дожд., средняя 
[Cb calv|Ac cuf]
+16.5 +12.3 76 +23  1009.1  1.2  737  278    +25  0.5     
21 22.05.19 210 (ЮЗ) 30000 м  {гроза, ливн. осадки}  9/4 300 м средняя 
[Sc|Ac trans]
+15.7 +12.5 81 +21  1007.8  -1.4  736  278           
00 23.05.19 290 (З) 28000 м  {гроза, ливн. осадки}  8/0 средняя 
[Ac trans]
+13.5 +11.8 89 +19  1007.7  -0.3  736  280           
03 23.05.19 290 (З) 15000 м    4/0 средняя, верхняя 
[Ac trans|Cc]
+13.2 +12.3 94 +19  1007.7  -0.1  736  280  +12    0.5     
06 23.05.19 250 (З) 18000 м    3/0 средняя, верхняя 
[Ac trans|Ci fib]
+19.9 +12.6 63 +26  1007  736  274  +12        влажная 
09 23.05.19 310 (СЗ) 20000 м    8/6 1000 м верхняя 
[Cu med, cong|Ci fib]
+22.3 +13.2 56 +28  1006.8  736  272           
12 23.05.19 310 (СЗ) 20000 м    8/6 1000 м верхняя 
[Cu med, cong|Cc]
+24.4 +11.9 46 +29  1005.4  -1.2  735  270           
15 23.05.19 330 (СЗ) 4{11}  16000 м  в посл. час ливневой дождь  8/6 600 м кучево-дожд., средняя, верхняя 
[Cb calv|Ac As|Cc]
+22.9 +12.9 53 +29  1005.3  -0.3  735  271      0.0     
18 23.05.19 120 (ЮВ) 20000 м    9/3 600 м средняя, верхняя 
[Cu med, cong|As trans|Ci sp]
+18.2 +12.4 69 +24  1007  1.2  736  276    +25       
21 23.05.19 240 (ЮЗ) 50000 м    ясно 
+13.5 +11.8 89 +19  1008  0.6  736  280           
00 24.05.19 тихо ()   17000 м    3/0 верхняя 
[Ci fib]
+12.5 +11.5 94 +16  1008.5  0.3  736  282           
03 24.05.19 080 (В) 8000 м  дымка  9/0 средняя, верхняя 
[Ac lent|Ci fib]
+12.6 +11.8 95 +18  1008.8  0.3  737  281  +10.7         
06 24.05.19 120 (ЮВ) 20000 м    9/0 средняя 
[Ac trans]
+18.6 +13.2 71 +26  1009.3  737  276  +10.7        влажная 
09 24.05.19 130 (ЮВ) 20000 м    9/5 600 м средняя, верхняя 
[Cu hum|Ac trans|Ci fib]
+21.7 +13.8 61 +29  1009.5  0.5  738  273           
12 24.05.19 040 (СВ) 8000 м  гроза, ливневой дождь  9/9 600 м кучево-дожд. 
[Cb cap]
+19 +15.7 81 +30  1008.9  -0.8  737  274           
15 24.05.19 080 (В) 2{12}  8000 м  гроза, ливневой дождь  10/10 600 м кучево-дожд. 
[Cb cap]
+13.6 +12.9 96 +20  1009.9  0.5  738  281      23     
18 24.05.19 120 (ЮВ) 18000 м  {гроза}  9/4 600 м средняя 
[Sc diur, vesp|Ac und]
+13.7 +13 96 +21  1009.4  -0.5  737  280    +23.3  25     
21 24.05.19 020 (С) 9000 м  дымка  9/0 средняя 
[Ac und]
+12.8 +12.1 96 +18  1009.5  0.1  737  281           
00 25.05.19 тихо ()   8000 м  дымка  9/6 600 м средняя 
[Sc|Ac und]
+13.4 +12.7 96 +19  1009.2  -0.3  737  281           
Время (UTC), дата Ветер
(°,м/с) 
Видим.   Явления Облачность Т
(°С)
Тd
(°С)
f(%) Тe
(°С)
Pmin
(гПа)
dP
(гПа)
Po
(мм)
O2
(г/м3)
Тmin Tmax R s Состояние
почвы

Для получения пояснительной информации подведите курсор к названию столбца.

ПОГОДА в Рославле - архив

Всё, что Вы хотите узнать о погоде в Рославле - удобно и подробно!

Выберите нужную дату (начиная с 1 января 2018* года) и нажмите кнопку "Найти".
Будут отображены архивные сводки погоды по пункту Рославль, начиная с указанной даты.


Отображать данные в формате CSV (для использования в таблицах Excel)


Внимание! Наш архив погоды предназначен исключительно для личного некоммерческого использования в познавательных целях. Если Вам необходимы официальные справки о состоянии погоды (для производственных, юридических, коммерческих и т.п. целей), обращайтесь в органы Росгидромета.

*Примечание: данная дата относится к архиву по метеостанциям СССР (Россия, СНГ, Балтия).
Архив по метеостанциям Зарубежной Европы и Азии (кроме Китая) хранится 10 дней, по другим регионам земного шара (Китай, Африка, Америка, Австралия, Океания) - 1 день.

Рославль - район местоположения метеостанции


Название, широта, долгота, высота метеостанции:
Рославль 53.9°ш. 32.8°д. 224 м над ур. моря [Российская Федерация]

Дополнительная информация

В oтличие oт бoльшинства пoгoдных сайтoв мы публикуем пoдрoбную метеoинфoрмацию в детальнoм прoфессиoнальнoм фoрмате.

Характеристики температуры и влажнoсти вoздуха измеряются на высoте 2 м в тени вдали oт зданий и деревьев.
Скoрoсть ветра измеряется на высoте 10 м (на урoвне рoста челoвека скoрoсть ветра ниже в 1.5-2 раза). Если метеoстанция нахoдится в гoрoде или в лесу, тo скoрoсть ветра занижена на 2-4 м/с пo сравнению с oткрытым местoм. Скoрoсть ветра над акватoриями крупных рек и oзёр, а также на вершинах хoлмoв на 2-5 м/с выше, чем в oбычных услoвиях.
Атмoсфернoе давление в разных тoчках местнoсти мoжет значительнo oтличаться oт давления на метеoстанции, в зависимoсти oт услoвий рельефа (при пoдъёме на 10 м давление пoнижается примернo на 1 мм рт.ст.).